CDT,Max TemperatureF,Mean TemperatureF,Min TemperatureF,Max Dew PointF,MeanDew PointF,Min DewpointF,Max Humidity, Mean Humidity, Min Humidity, Max Sea Level PressureIn, Mean Sea Level PressureIn, Min Sea Level PressureIn, Max VisibilityMiles, Mean VisibilityMiles, Min VisibilityMiles, Max Wind SpeedMPH, Mean Wind SpeedMPH, Max Gust SpeedMPH,PrecipitationIn, CloudCover, Events, WindDirDegrees
2014-3-1,76,68,59,65,62,57,97,83,69,30.12,30.07,29.98,10,10,10,20,10,26,0.00,6,,176
2014-3-2,77,61,44,67,63,43,93,81,69,30.10,30.01,29.93,10,10,2,24,12,31,0.11,7,Rain,183
2014-3-3,45,40,34,42,33,25,92,79,65,30.29,30.21,30.05,10,10,5,24,16,31,0.13,7,Rain-Thunderstorm,5
2014-3-4,35,33,31,33,30,25,92,81,69,30.26,30.18,30.12,10,9,4,23,10,29,0.44,8,Rain,42
2014-3-5,53,44,35,46,42,33,100,89,77,30.12,30.07,30.00,10,9,6,14,8,17,T,8,,30
2014-3-6,58,49,39,46,43,38,100,79,57,30.14,30.09,30.03,10,9,2,20,10,26,0.00,6,,353
2014-3-7,59,48,36,48,42,36,100,81,62,30.17,30.09,30.02,10,6,0,10,4,13,0.00,4,Fog,108
2014-3-8,67,58,49,55,52,48,100,82,63,30.19,30.11,30.03,10,9,6,12,6,14,T,6,,99
2014-3-9,69,61,53,57,55,53,100,81,61,30.28,30.22,30.18,10,9,6,14,5,17,0.00,5,,17
2014-3-10,73,62,51,57,54,51,100,79,57,30.20,30.13,29.98,10,5,0,10,5,13,0.00,4,Fog,21
2014-3-11,72,64,56,62,59,55,100,87,73,29.94,29.79,29.69,10,6,0,17,6,23,0.37,6,Fog-Rain,213
2014-3-12,69,59,48,60,48,30,100,67,34,30.23,29.96,29.76,10,9,3,24,13,34,0.00,4,,326
2014-3-13,63,50,37,42,35,27,90,55,19,30.37,30.29,30.23,10,10,10,12,5,,0.00,0,,159
2014-3-14,71,58,44,57,51,42,93,73,53,30.22,30.16,30.09,10,10,10,21,8,26,0.00,6,,138
2014-3-15,70,65,60,66,61,57,100,89,78,30.08,29.95,29.78,10,10,4,16,9,26,0.29,8,Rain,122
2014-3-16,68,57,46,67,59,39,100,82,63,29.93,29.77,29.67,10,6,0,25,13,31,0.22,7,Fog-Rain-Thunderstorm,296
2014-3-17,54,47,40,39,37,35,92,76,59,29.95,29.91,29.87,10,10,10,21,9,27,0.00,6,,354
2014-3-18,66,53,39,54,47,38,93,76,58,29.97,29.91,29.88,10,10,3,20,9,29,0.00,1,,159
2014-3-19,73,62,50,61,55,48,100,83,66,30.16,30.05,29.94,10,7,1,12,5,15,0.00,4,,182
2014-3-20,75,64,53,61,47,42,100,66,31,30.22,30.15,30.09,10,10,7,15,6,19,0.00,3,,38
2014-3-21,72,61,49,61,54,49,100,79,57,30.10,30.05,29.99,10,4,0,13,4,18,0.00,4,Fog,161
2014-3-22,77,69,60,67,63,58,100,85,69,30.06,30.00,29.96,10,4,0,8,4,11,T,7,Fog-Rain,124
2014-3-23,70,61,51,67,58,47,100,80,60,30.22,30.10,29.99,10,5,0,29,10,39,0.24,8,Fog-Rain-Thunderstorm,358
2014-3-24,65,57,49,52,45,41,89,71,52,30.21,30.12,30.02,10,10,6,15,7,19,0.01,6,Rain,42
2014-3-25,69,57,45,44,36,25,93,56,19,30.31,30.23,30.13,10,10,10,23,8,28,0.00,0,,21
2014-3-26,60,52,43,48,41,36,89,65,40,30.35,30.24,30.13,10,10,10,23,11,27,0.01,3,Rain,106
2014-3-27,71,62,52,67,58,48,100,89,78,30.11,29.97,29.85,10,9,4,29,14,39,0.11,8,Rain-Thunderstorm,134
2014-3-28,80,70,59,71,68,59,100,87,74,29.94,29.86,29.77,10,6,0,22,9,30,0.14,7,Fog-Rain-Thunderstorm,211
2014-3-29,78,66,54,59,52,38,100,63,25,30.24,30.10,29.95,10,9,2,25,10,32,0.00,2,,352
2014-3-30,70,59,48,49,45,37,93,62,31,30.32,30.23,30.16,10,10,10,15,5,19,0.00,0,,117
2014-3-31,74,60,46,59,54,45,100,79,57,30.14,30.08,30.03,10,10,9,21,8,25,T,3,Rain,152